INMARSAT 3-F2 1 24307U 96053A 24263.43070101 -.00000021 00000-0 00000-0 0 9996 2 24307 8.4015 60.0750 0007035 106.1759 61.0127 0.99975890102565 ARTEMIS 1 26863U 01029A 24263.35999257 -.00000050 00000-0 00000-0 0 9999 2 26863 14.4421 11.2077 0017419 160.8929 221.0458 0.99287773 37541 ANIK F1-R 1 28868U 05036A 24263.50084775 -.00000081 00000-0 00000-0 0 9999 2 28868 2.6710 84.4475 0002679 76.7233 270.7451 1.00271473 40076 GALAXY 15 1 28884U 05041A 24263.37170223 -.00000232 00000-0 00000-0 0 9990 2 28884 1.8726 83.7406 0016759 118.8375 252.6137 0.98942195 69159 INMARSAT 4-F2 1 28899U 05044A 24263.48920977 -.00000267 00000-0 00000-0 0 9998 2 28899 4.2939 42.7904 0002509 162.1513 113.5615 1.00270197 69145 HIMAWARI 7 1 28937U 06004A 24263.60917041 -.00000268 00000-0 00000-0 0 9991 2 28937 4.1341 80.6294 0009498 139.2078 157.9161 0.99080051 67929 INMARSAT 4-F3 1 33278U 08039A 24263.50275913 -.00000147 00000-0 00000-0 0 9995 2 33278 3.7771 28.1353 0002812 160.1983 253.5723 1.00272979 40179 QZS-1 (MICHIBIKI) 1 37158U 10045A 24261.31021720 .00000004 00000-0 00000-0 0 9999 2 37158 43.3651 123.4289 0003702 87.7224 266.2607 0.87715110 50799 GSAT 8 1 37605U 11022A 24263.53315167 .00000077 00000-0 00000+0 0 9998 2 37605 0.4782 90.0424 0006629 149.7149 6.1866 1.00270504 48863 LUCH 5A 1 37951U 11074B 24263.61405218 -.00000053 00000-0 00000-0 0 9991 2 37951 7.1234 83.4655 0004571 97.8497 205.7549 1.00269159 46674 SES 5 1 38652U 12036A 24262.95616015 .00000024 00000-0 00000-0 0 9991 2 38652 0.0733 297.0994 0001785 253.7884 156.6681 1.00262125 38099 GSAT 10 1 38779U 12051B 24263.22549529 -.00000173 00000-0 00000-0 0 9990 2 38779 0.0246 231.8263 0002347 23.7422 267.2147 1.00270807 43730 LUCH 5B 1 38977U 12061A 24263.73350059 -.00000141 00000-0 00000+0 0 9999 2 38977 9.0941 55.8497 0006653 139.8952 51.1308 1.00270733 43800 ASTRA 5B 1 39617U 14011B 24263.24074044 .00000128 00000-0 00000-0 0 9996 2 39617 0.0848 304.2677 0003433 257.8634 266.6604 1.00270828 38295 LUCH 5V 1 39727U 14023A 24263.82715765 -.00000275 00000-0 00000+0 0 9990 2 39727 3.5315 75.3065 0003411 145.9994 170.3858 1.00275182556131 GSAT 15 1 41028U 15065A 24262.96857567 -.00000267 00000-0 00000-0 0 9997 2 41028 0.0570 275.6372 0002224 248.9325 275.9806 1.00271356 32416 QZS-2 1 42738U 17028A 24263.83454250 -.00000165 00000-0 00000+0 0 9992 2 42738 40.4280 252.3963 0748920 270.4180 277.3614 1.00259575 26750